FW5249 Weather Reports


time (UTC)temp
C
wind
direction
speed
KPH
gust
KPH
rain 1hr
cm
rain 24hr
cm
rain mn
cm
humidity
%
barometer
mb
20260506001439 21 90 6.4 14.5 0.00 0.00 0.00 86 1012.4
20260506000948 21 90 3.2 17.7 0.00 0.00 0.00 86 1012.1
20260506000420 21 90 6.4 17.7 0.00 0.00 0.00 86 1012.1
20260505235912 21 90 8.0 17.7 0.00 0.00 0.00 85 1012.1
20260505233843 21 90 3.2 12.9 0.00 0.00 0.00 86 1012.0
20260505233318 21 45 6.4 17.7 0.00 0.00 0.00 86 1011.8
20260505232811 21 90 3.2 17.7 0.00 0.00 0.00 86 1011.9
20260505232305 21 90 6.4 16.1 0.00 0.00 0.00 85 1011.9
20260505231751 21 90 4.8 19.3 0.00 0.00 0.00 85 1011.7
20260505230737 21 90 3.2 22.5 0.00 0.00 0.00 84 1011.6
20260505230240 21 90 9.7 17.7 0.00 0.00 0.00 84 1011.5
20260505225203 22 90 6.4 19.3 0.00 0.00 0.00 84 1011.5
20260505224654 22 90 9.7 19.3 0.00 0.00 0.00 84 1011.2
20260505224144 22 90 9.7 19.3 0.00 0.00 0.00 84 1011.3
20260505223641 22 90 6.4 20.9 0.00 0.00 0.00 83 1011.1
20260505223118 22 90 11.3 20.9 0.00 0.00 0.00 83 1011.5
20260505222607 22 90 6.4 16.1 0.00 0.00 0.00 83 1011.7
20260505222104 22 135 4.8 14.5 0.00 0.00 0.00 83 1011.7
20260505221559 22 135 6.4 14.5 0.00 0.00 0.00 83 1011.6
20260505220015 22 135 4.8 11.3 0.00 0.00 0.00 82 1011.7
20260505215514 22 135 6.4 11.3 0.00 0.00 0.00 82 1011.7
20260505215002 22 90 1.6 17.7 0.00 0.00 0.00 82 1011.7
20260505214459 22 90 6.4 17.7 0.00 0.00 0.00 81 1011.6
20260505213946 22 90 6.4 11.3 0.00 0.00 0.00 81 1011.3
20260505213429 22 90 3.2 12.9 0.00 0.00 0.00 81 1011.2
20260505212934 22 90 3.2 14.5 0.00 0.00 0.00 80 1011.1
20260505210839 23 90 3.2 19.3 0.00 0.00 0.00 79 1011.1
20260505210326 23 90 11.3 17.7 0.00 0.00 0.00 78 1011.0
20260505205822 23 90 6.4 17.7 0.00 0.00 0.00 78 1010.9
20260505205313 23 90 9.7 17.7 0.00 0.00 0.00 77 1011.0
20260505204806 23 90 6.4 16.1 0.00 0.00 0.00 77 1011.0
20260505204252 23 90 4.8 17.7 0.00 0.00 0.00 76 1011.0
20260505203233 24 90 4.8 12.9 0.00 0.00 0.00 72 1010.8
20260505202722 24 90 6.4 12.9 0.00 0.00 0.00 72 1010.9
20260505202203 24 90 4.8 11.3 0.00 0.00 0.00 71 1010.7
20260505201153 25 90 3.2 9.7 0.00 0.00 0.00 70 1010.7
20260505200632 25 90 3.2 12.9 0.00 0.00 0.00 69 1010.8
20260505200132 25 90 4.8 12.9 0.00 0.00 0.00 69 1010.8
20260505195624 25 90 4.8 6.4 0.00 0.00 0.00 68 1010.8
20260505195101 25 45 3.2 6.4 0.00 0.00 0.00 69 1010.7
20260505194604 25 90 1.6 6.4 0.00 0.00 0.00 70 1010.8
20260505193539 25 45 3.2 11.3 0.00 0.00 0.00 71 1010.9
20260505193039 25 45 6.4 11.3 0.00 0.00 0.00 70 1010.9
20260505192521 25 45 4.8 9.7 0.00 0.00 0.00 70 1011.1
20260505192013 25 45 3.2 8.0 0.00 0.00 0.00 71 1011.3
20260505191455 25 45 3.2 6.4 0.00 0.00 0.00 70 1011.1
20260505190958 25 45 3.2 6.4 0.00 0.00 0.00 71 1011.1
20260505190433 25 45 3.2 8.0 0.00 0.00 0.00 71 1011.2
20260505185920 25 0 3.2 8.0 0.00 0.00 0.00 71 1011.2
20260505185429 25 0 3.2 6.4 0.00 0.00 0.00 70 1011.1
20260505184906 25 0 3.2 6.4 0.00 0.00 0.00 70 1011.0
20260505183850 25 0 1.6 9.7 0.00 0.00 0.00 69 1011.1
20260505183335 25 0 3.2 9.7 0.00 0.00 0.00 69 1010.9
20260505182828 25 0 3.2 8.0 0.00 0.00 0.00 69 1010.7
20260505182324 25 0 4.8 8.0 0.00 0.00 0.00 70 1010.8
20260505181759 25 0 3.2 6.4 0.00 0.00 0.00 70 1011.2
20260505181256 25 0 1.6 6.4 0.00 0.00 0.00 71 1011.2
20260505180748 25 0 1.6 6.4 0.00 0.00 0.00 72 1011.3
20260505180229 24 0 1.6 3.2 0.00 0.00 0.00 70 1011.4
20260505175723 24 0 0.0 3.2 0.00 0.00 0.00 70 1011.5
20260505175226 24 0 1.6 3.2 0.00 0.00 0.00 71 1011.7
20260505174702 24 0 0.0 3.2 0.00 0.00 0.00 73 1011.6
20260505174151 24 0 0.0 3.2 0.00 0.00 0.00 73 1011.7
20260505173647 24 0 3.2 4.8 0.00 0.00 0.00 74 1011.5
20260505173128 24 0 1.6 4.8 0.00 0.00 0.00 74 1011.6
20260505172631 24 0 0.0 6.4 0.00 0.00 0.00 74 1011.6
20260505172114 25 0 3.2 6.4 0.00 0.00 0.00 74 1011.8
20260505171606 25 0 3.2 6.4 0.00 0.00 0.00 73 1011.7
20260505171049 25 0 0.0 3.2 0.00 0.00 0.00 70 1011.7
20260505170546 24 0 0.0 4.8 0.00 0.00 0.00 71 1011.9
20260505165518 24 0 0.0 6.4 0.00 0.00 0.00 72 1012.0
20260505165021 24 0 3.2 6.4 0.00 0.00 0.00 72 1012.0
20260505164502 24 0 3.2 6.4 0.00 0.00 0.00 71 1012.0
20260505163948 24 0 3.2 9.7 0.00 0.00 0.00 71 1012.2
20260505163441 24 0 3.2 9.7 0.00 0.00 0.00 71 1012.1
20260505162934 24 0 8.0 9.7 0.00 0.00 0.00 72 1012.0
20260505162414 24 0 3.2 6.4 0.00 0.00 0.00 72 1012.3
20260505161918 24 0 1.6 6.4 0.00 0.00 0.00 73 1012.1
20260505161359 24 0 1.6 6.4 0.00 0.00 0.00 72 1012.2
20260505160346 24 0 3.2 8.0 0.00 0.00 0.00 74 1012.4
20260505153249 24 0 4.8 12.9 0.00 0.00 0.00 72 1012.5
20260505152726 23 0 6.4 12.9 0.00 0.00 0.00 74 1012.6
20260505152222 23 0 3.2 16.1 0.00 0.00 0.00 75 1012.8
20260505151713 23 315 4.8 17.7 0.00 0.00 0.00 77 1012.8
20260505150643 23 0 8.0 12.9 0.00 0.00 0.00 77 1013.0
20260505140441 20 45 4.8 8.0 0.00 0.00 0.00 78 1013.0
20260505124710 16 90 3.2 9.7 0.00 0.00 0.00 86 1013.3
20260505124209 15 45 3.2 9.7 0.00 0.00 0.00 86 1013.6
20260505123703 15 90 3.2 9.7 0.00 0.00 0.00 86 1013.2
20260505122631 15 90 3.2 9.7 0.00 0.00 0.00 85 1013.2
20260505122127 15 90 0.0 8.0 0.00 0.00 0.00 85 1013.0
20260505121611 15 90 3.2 8.0 0.00 0.00 0.00 85 1012.7
20260505121102 15 90 4.8 6.4 0.00 0.00 0.00 85 1013.0
20260505120617 15 90 3.2 6.4 0.00 0.00 0.00 85 1012.8
20260505120040 15 90 0.0 6.4 0.00 0.00 0.00 85 1013.0
20260505115535 15 90 3.2 6.4 0.00 0.00 0.00 85 1012.8
20260505115032 15 45 1.6 6.4 0.00 0.00 0.00 85 1012.7
20260505114509 15 90 1.6 6.4 0.00 0.00 0.00 85 1012.7
20260505114003 15 90 3.2 11.3 0.00 0.00 0.00 85 1012.5
20260505113530 15 90 4.8 11.3 0.00 0.00 0.00 84 1012.6
20260505112510 15 0 3.2 9.7 0.00 0.00 0.00 84 1012.5
20260505112036 15 0 1.6 4.8 0.00 0.00 0.00 83 1012.4
20260505111607 14 0 3.2 6.4 0.00 0.00 0.00 83 1012.1
20260505101726 14 0 0.0 4.8 0.00 0.00 0.00 81 1011.7
20260505101222 14 0 3.2 4.8 0.00 0.00 0.00 81 1011.9
20260505100707 14 0 0.0 3.2 0.00 0.00 0.00 81 1011.8
20260505100202 14 0 0.0 6.4 0.00 0.00 0.00 81 1011.8
20260505095639 13 0 0.0 6.4 0.00 0.00 0.00 81 1011.7
20260505095127 13 0 1.6 6.4 0.00 0.00 0.00 81 1011.7
20260505094624 13 0 1.6 4.8 0.00 0.00 0.00 81 1011.6
20260505094111 13 0 1.6 4.8 0.00 0.00 0.00 81 1011.4
20260505093602 13 0 1.6 4.8 0.00 0.00 0.00 81 1011.6
20260505093101 13 0 0.0 6.4 0.00 0.00 0.00 81 1011.4
20260505092557 13 0 1.6 6.4 0.00 0.00 0.00 81 1011.2
20260505091530 13 0 1.6 4.8 0.00 0.00 0.00 81 1011.4
20260505091009 13 0 0.0 6.4 0.00 0.00 0.00 81 1011.4
20260505090459 13 0 3.2 6.4 0.00 0.00 0.00 81 1011.3
20260505085954 13 0 0.0 4.8 0.00 0.00 0.00 81 1011.5
20260505085434 13 0 1.6 4.8 0.00 0.00 0.00 81 1011.6
20260505084933 13 0 0.0 6.4 0.00 0.00 0.00 82 1011.6
20260505084424 13 0 0.0 6.4 0.00 0.00 0.00 82 1011.5
20260505083918 13 0 1.6 4.8 0.00 0.00 0.00 82 1011.3
20260505083402 13 0 3.2 4.8 0.00 0.00 0.00 81 1011.3
20260505082906 13 0 0.0 3.2 0.00 0.00 0.00 81 1011.1
20260505082336 13 0 0.0 3.2 0.00 0.00 0.00 81 1011.2
20260505081835 13 0 3.2 4.8 0.00 0.00 0.00 81 1011.2
20260505081323 13 0 0.0 4.8 0.00 0.00 0.00 81 1011.2
20260505080839 13 0 0.0 6.4 0.00 0.00 0.00 81 1011.2
20260505075811 13 0 1.6 3.2 0.00 0.00 0.00 81 1011.0
20260505074731 13 0 0.0 3.2 0.00 0.00 0.00 82 1011.0
20260505074220 12 0 0.0 3.2 0.00 0.00 0.00 82 1011.0
20260505073730 12 0 0.0 3.2 0.00 0.00 0.00 82 1010.8
20260505073248 12 0 0.0 3.2 0.00 0.00 0.00 83 1011.1
20260505072137 12 0 0.0 3.2 0.00 0.00 0.00 84 1010.9
20260505071626 12 0 0.0 0.0 0.00 0.00 0.00 85 1010.9
20260505071121 12 0 0.0 3.2 0.00 0.00 0.00 85 1010.9
20260505070601 12 0 0.0 3.2 0.00 0.00 0.00 85 1010.8
20260505070109 12 0 1.6 3.2 0.00 0.00 0.00 85 1010.7
20260505065553 12 0 0.0 0.0 0.00 0.00 0.00 85 1010.7
20260505065035 12 0 0.0 0.0 0.00 0.00 0.00 85 1010.7
20260505064533 12 0 0.0 3.2 0.00 0.00 0.00 85 1010.9
20260505064026 12 0 0.0 3.2 0.00 0.00 0.00 85 1011.0
20260505063530 12 0 0.0 6.4 0.00 0.00 0.00 85 1010.8
20260505062505 12 0 1.6 3.2 0.00 0.00 0.00 84 1010.9
20260505061454 12 0 0.0 3.2 0.00 0.00 0.00 84 1011.1
20260505060405 12 0 1.6 3.2 0.00 0.00 0.00 84 1011.2
20260505055922 12 0 0.0 3.2 0.00 0.00 0.00 84 1011.2
20260505054833 11 0 0.0 3.2 0.00 0.00 0.00 84 1011.5
20260505054336 11 0 0.0 3.2 0.00 0.00 0.00 84 1011.5
20260505053824 11 0 1.6 3.2 0.00 0.00 0.00 84 1011.4
20260505053257 11 0 0.0 0.0 0.00 0.00 0.00 84 1011.4
20260505052753 11 0 0.0 3.2 0.00 0.00 0.00 85 1011.5
20260505052256 11 0 0.0 3.2 0.00 0.00 0.00 85 1011.6
20260505051829 11 0 0.0 3.2 0.00 0.00 0.00 85 1011.7
20260505051359 11 0 0.0 3.2 0.00 0.00 0.00 85 1011.4
20260505041540 12 0 0.0 1.6 0.00 0.00 0.00 80 1011.3
20260505041020 12 0 0.0 0.0 0.00 0.00 0.00 80 1011.4
20260505040528 12 0 0.0 0.0 0.00 0.00 0.00 81 1011.5
20260505040040 12 0 0.0 0.0 0.00 0.00 0.00 82 1011.4
20260505034946 12 0 0.0 0.0 0.00 0.00 0.00 81 1011.5
20260505034433 12 0 0.0 0.0 0.00 0.00 0.00 81 1011.3
20260505033942 12 0 0.0 4.8 0.00 0.00 0.00 79 1011.3
20260505032910 12 0 1.6 6.4 0.00 0.00 0.00 80 1011.2
20260505032357 12 0 3.2 6.4 0.00 0.00 0.00 80 1011.2
20260505031851 12 0 0.0 6.4 0.00 0.00 0.00 79 1011.2
20260505031339 13 0 3.2 6.4 0.00 0.00 0.00 79 1011.4
20260505030816 13 0 0.0 3.2 0.00 0.00 0.00 79 1011.3
20260505030331 13 0 0.0 3.2 0.00 0.00 0.00 79 1011.3
20260505025803 13 0 0.0 3.2 0.00 0.00 0.00 79 1011.3
20260505025259 13 0 0.0 4.8 0.00 0.00 0.00 78 1011.4
20260505024748 13 0 1.6 6.4 0.00 0.00 0.00 78 1011.1
20260505024223 13 0 1.6 6.4 0.00 0.00 0.00 78 1011.2
20260505023719 13 0 3.2 6.4 0.00 0.00 0.00 78 1011.3
20260505023216 13 0 0.0 3.2 0.00 0.00 0.00 79 1011.4
20260505022659 13 0 0.0 3.2 0.00 0.00 0.00 79 1011.2
20260505022151 13 0 0.0 3.2 0.00 0.00 0.00 78 1011.3
20260505021655 13 0 0.0 0.0 0.00 0.00 0.00 76 1011.5
20260505021122 13 0 0.0 3.2 0.00 0.00 0.00 76 1011.3
20260505020628 13 0 0.0 3.2 0.00 0.00 0.00 76 1011.5
20260505020109 13 0 0.0 3.2 0.00 0.00 0.00 77 1011.4
20260505015555 13 0 0.0 3.2 0.00 0.00 0.00 77 1011.3
20260505015049 13 0 0.0 3.2 0.00 0.00 0.00 77 1011.4
20260505014544 13 0 0.0 4.8 0.00 0.00 0.00 77 1011.4
20260505014021 13 0 0.0 4.8 0.00 0.00 0.00 76 1011.2
20260505013528 13 0 1.6 4.8 0.00 0.00 0.00 76 1011.0
20260505013014 13 0 1.6 4.8 0.00 0.00 0.00 76 1010.9
20260505012451 13 0 3.2 4.8 0.00 0.00 0.00 76 1011.0
20260505011949 13 0 3.2 6.4 0.00 0.00 0.00 75 1011.0
20260505011453 13 0 1.6 6.4 0.00 0.00 0.00 75 1010.8
20260505010919 13 0 0.0 3.2 0.00 0.00 0.00 75 1011.1
20260505010427 13 0 0.0 3.2 0.00 0.00 0.00 75 1010.8
20260505005946 14 0 1.6 3.2 0.00 0.00 0.00 74 1010.7
20260505005455 14 0 0.0 3.2 0.00 0.00 0.00 74 1010.7
20260505004453 14 0 3.2 6.4 0.00 0.00 0.00 73 1010.4
20260505003354 15 0 1.6 4.8 0.00 0.00 0.00 72 1010.1
20260505002912 15 0 3.2 4.8 0.00 0.00 0.00 71 1010.3
20260505002416 15 0 1.6 3.2 0.00 0.00 0.00 70 1010.4